Dewpoint
6 7 7 8 9 8 5 -5 -11 -15 -16 -15 -12 -6 -5 -5 -7 -8 -3 1 1 -6 -6 -9 -16 -21 -26 -27 -28 -28 -28 -28 -29 -30 -30 -30 -29 -29 -28 -28 -28 -28 -28
7 9 8 8 8 8 5 -5 -12 -15 -16 -15 -11 -6 -3 -5 -6 -8 -9 1 5 -0 -4 -5 -11 -17 -24 -28 -30 -29 -29 -30 -30 -31 -31 -31 -32 -32 -32 -32 -31 -30 -29
7 9 10 9 9 9 5 -4 -12 -15 -15 -11 -8 -5 -3 -3 -5 -7 -12 -2 4 3 -8 -14 -20 -21 -25 -27 -29 -30 -30 -30 -32 -32 -32 -33 -33 -33 -34 -34 -34 -33 -33
8 8 10 10 9 9 7 -2 -11 -14 -13 -9 -6 -4 -3 -3 -4 -7 -12 -7 1 0 -6 -16 -23 -24 -23 -20 -22 -27 -30 -31 -31 -32 -32 -32 -32 -33 -33 -33 -33 -33 -32
8 9 8 9 11 10 8 -0 -10 -14 -12 -8 -5 -3 -3 -3 -3 -8 -12 -12 -7 -6 -7 -19 -23 -24 -20 -13 -12 -15 -22 -29 -30 -31 -32 -33 -32 -33 -32 -32 -33 -32 -32
9 10 10 10 9 10 10 4 -11 -13 -11 -7 -3 -1 -1 -2 -3 -6 -10 -13 -11 -11 -13 -19 -22 -20 -19 -13 -10 -11 -13 -18 -27 -30 -32 -32 -33 -33 -33 -32 -32 -32 -32
9 10 10 10 11 12 10 7 -9 -10 -8 -5 -4 -0 -0 -1 -3 -5 -8 -11 -12 -14 -17 -19 -20 -18 -22 -20 -11 -11 -14 -18 -28 -31 -32 -32 -32 -33 -33 -33 -33 -33 -33
11 11 11 10 10 12 11 9 5 -11 -6 -8 -6 -2 0 -2 -3 -4 -7 -9 -11 -13 -15 -17 -18 -20 -23 -24 -14 -21 -20 -26 -30 -31 -32 -32 -32 -32 -32 -32 -32 -33 -33
13 12 12 11 11 11 12 11 7 4 -11 -4 -7 -5 -0 -1 -1 -3 -5 -7 -9 -11 -12 -15 -16 -16 -20 -21 -23 -27 -30 -31 -31 -31 -31 -31 -31 -31 -31 -31 -31 -31 -31
12 12 12 12 12 12 12 11 9 3 -10 -6 -5 -3 -8 -8 -2 -2 -3 -5 -7 -9 -11 -13 -14 -14 -17 -19 -21 -24 -26 -29 -30 -31 -31 -30 -30 -30 -30 -29 -29 -29 -29
12 12 12 12 12 12 12 12 11 4 -7 -7 -8 -5 -6 -7 -9 -4 -2 -3 -5 -7 -9 -10 -12 -12 -14 -17 -19 -22 -23 -25 -28 -29 -30 -30 -29 -29 -29 -28 -28 -28 -28
11 12 12 11 12 12 12 12 12 9 -5 -7 -7 -6 -5 -7 -8 -7 -5 -3 -3 -3 -7 -8 -9 -10 -12 -14 -17 -19 -22 -23 -25 -27 -27 -28 -28 -28 -28 -27 -27 -27 -27
7 10 9 9 10 10 11 11 8 5 2 1 -3 -4 -5 -6 -9 -8 -8 -4 -2 -3 -4 -6 -7 -8 -10 -12 -12 -15 -18 -20 -20 -21 -23 -25 -26 -27 -26 -26 -26 -27 -27
7 7 7 7 8 9 7 6 7 6 4 2 1 0 -3 -5 -7 -6 -9 -9 -3 -3 -4 -5 -6 -7 -8 -10 -9 -7 -10 -12 -14 -15 -16 -19 -23 -24 -25 -25 -26 -26 -27
5 6 7 6 6 7 7 7 6 5 4 3 2 1 0 -3 -4 -5 -6 -7 -7 -3 -4 -5 -6 -6 -7 -8 -7 -5 -9 -11 -11 -12 -12 -13 -15 -20 -23 -24 -25 -25 -26
3 4 4 4 5 6 6 6 6 5 4 3 2 1 1 -1 -2 -3 -3 -3 -4 -5 -3 -5 -6 -6 -5 -6 -5 -6 -8 -9 -9 -10 -11 -11 -12 -15 -21 -22 -24 -25 -26
2 3 4 4 5 4 4 5 4 4 3 2 2 2 1 2 0 -1 -1 -2 -3 -3 -3 -5 -5 -4 -4 -5 -4 -5 -8 -8 -9 -9 -10 -11 -12 -13 -17 -19 -21 -24 -27
4 3 3 4 3 3 4 4 4 4 4 3 2 1 0 0 0 0 1 0 0 0 -0 -1 -1 -2 -4 -4 -5 -5 -7 -8 -9 -10 -10 -11 -11 -12 -16 -18 -20 -25 -28
3 3 4 4 3 4 3 4 3 3 3 2 1 0 -0 0 0 0 0 1 1 0 1 1 -1 -3 -2 -2 -3 -4 -7 -8 -9 -10 -11 -11 -11 -13 -15 -18 -19 -26 -29
3 4 3 4 4 3 3 3 3 2 2 2 2 1 0 -0 0 0 -0 -1 -0 0 0 -1 -1 -1 -1 -2 -3 -4 -7 -8 -9 -7 -11 -11 -12 -13 -15 -18 -20 -28 -29
1 2 3 4 5 4 3 3 3 1 1 1 1 1 0 0 -0 -1 -1 -1 -0 -0 -1 -1 -1 -2 -3 -3 -4 -5 -7 -8 -5 -10 -11 -11 -12 -14 -16 -17 -24 -28 -29
-3 -4 2 5 3 4 4 4 3 2 1 0 -0 -0 -0 -1 -1 -1 -1 -1 -1 -1 -2 -2 -2 -3 -3 -3 -5 -5 -5 -5 -10 -11 -10 -10 -13 -14 -14 -23 -28 -29 -31
-2 -5 -7 2 4 3 3 3 3 2 2 1 -0 -1 -1 -1 -1 -2 -2 -2 -2 -2 -2 -2 -3 -3 -3 -3 -3 -4 -6 -9 -10 -9 -9 -14 -13 -15 -25 -28 -29 -31 -33
-3 -6 -6 -2 4 4 4 2 2 2 2 1 0 -0 -0 -1 -1 -2 -2 -3 -4 -4 -5 -5 -5 -4 -4 -5 -6 -8 -10 -10 -8 -10 -12 -11 -17 -26 -28 -29 -31 -31 -31
-3 -4 -5 0 3 4 4 2 2 1 1 1 -0 -0 -1 -1 -2 -3 -3 -4 -6 -7 -8 -7 -6 -5 -5 -5 -6 -7 -8 -10 -11 -10 -15 -25 -27 -27 -29 -31 -32 -31 -28
-3 -6 -7 -2 3 3 3 3 2 1 0 0 -0 -1 -1 -2 -2 -3 -4 -5 -7 -9 -9 -7 -6 -6 -7 -8 -9 -9 -9 -9 -16 -20 -26 -24 -26 -26 -26 -30 -29 -30 -29
Wind_Speed
32 30 30 28 27 27 26 25 24 22 22 21 21 19 17 14 12 11 12 12 9 5 5 5 5 4 5 5 5 6 7 7 6 6 6 6 6 5 5 5 5 4 4
34 32 32 31 30 29 28 27 25 24 24 23 22 21 19 16 14 14 15 14 12 9 7 6 6 4 4 4 5 5 5 5 5 5 5 6 6 6 7 7 7 7 7
37 33 34 33 31 30 31 30 28 26 25 25 24 22 20 17 16 16 17 16 17 14 8 6 4 4 3 3 3 3 4 4 4 5 6 6 6 7 7 7 7 7 7
40 37 37 34 31 32 33 34 32 30 28 27 26 24 21 18 18 18 19 20 16 15 11 8 5 4 3 3 3 4 4 4 5 5 6 6 7 7 7 7 7 7 7
45 43 40 38 33 34 37 38 37 34 33 31 28 26 24 22 20 19 20 21 20 17 14 12 9 7 6 6 5 6 6 5 5 5 5 5 5 5 6 6 6 6 6
49 46 44 41 38 39 40 40 40 38 35 32 30 28 26 24 23 21 21 21 22 19 16 14 13 12 10 9 8 7 7 6 5 5 4 4 4 4 4 5 5 5 6
55 51 51 47 45 45 45 42 39 38 38 38 35 30 28 26 25 24 23 23 22 20 18 17 15 14 13 12 11 9 7 6 5 5 4 3 3 3 4 4 5 6 6
56 56 57 55 52 50 49 49 48 47 48 48 43 37 19 22 27 27 27 25 24 22 21 19 17 16 14 14 12 10 8 6 5 4 3 2 2 3 4 4 6 7 8
60 56 62 61 59 57 58 57 57 60 64 57 52 38 18 18 27 30 31 28 27 25 22 21 19 18 16 14 12 11 9 8 5 4 3 2 2 2 2 3 5 6 7
60 64 56 66 66 61 62 64 64 64 68 65 56 49 40 30 21 19 32 32 30 28 26 23 21 19 16 15 13 12 11 9 7 6 4 2 1 1 1 3 4 5 6
58 62 60 56 66 73 66 66 69 70 72 67 63 61 45 32 30 25 26 34 33 31 28 25 22 20 17 16 14 13 11 9 8 6 5 4 2 2 2 3 4 5 6
37 58 58 60 60 70 73 72 74 73 75 73 67 68 62 54 40 34 24 37 35 33 32 29 25 22 19 18 15 13 12 11 10 8 7 5 4 4 5 5 4 5 6
25 30 32 41 52 65 69 73 67 57 56 48 67 70 63 58 48 36 31 34 32 25 30 32 29 26 22 20 16 13 12 12 12 10 9 8 6 6 6 6 6 6 7
20 24 29 33 40 51 48 48 52 55 56 59 48 39 56 59 48 40 36 33 25 18 34 32 36 31 26 23 18 15 15 13 11 11 10 8 7 6 6 7 7 8 9
16 15 16 20 26 37 43 44 49 48 51 60 61 50 48 49 44 41 35 31 34 19 27 33 30 35 29 26 22 19 16 15 12 10 7 9 8 7 8 9 9 9 10
16 18 20 19 21 26 27 29 39 42 50 56 62 57 47 43 40 37 33 30 28 27 21 30 35 31 33 29 24 20 19 18 14 11 10 9 9 9 10 10 11 11 12
18 17 16 12 13 17 22 22 29 33 38 47 48 52 46 40 40 36 32 31 28 22 20 27 24 23 28 30 25 25 23 21 18 15 13 12 12 11 13 13 14 13 15
20 15 14 14 10 12 15 22 25 29 29 35 40 43 41 39 38 37 33 32 28 27 27 29 28 31 31 29 31 28 27 24 20 17 17 16 13 13 15 15 16 16 17
20 21 19 10 7 11 10 14 15 18 27 31 35 35 36 36 37 36 36 38 37 32 32 32 34 35 33 32 34 31 30 26 22 19 19 17 15 15 16 18 18 19 20
21 17 14 16 6 12 10 17 16 17 18 23 29 31 33 35 37 37 35 34 33 32 29 31 34 38 36 34 34 35 32 27 25 23 21 18 17 17 18 19 21 21 21
19 16 14 12 14 7 11 12 16 12 19 24 25 26 27 26 28 34 34 30 26 26 30 32 32 33 33 33 35 34 30 28 26 23 21 19 20 21 21 22 22 22 22
20 20 16 15 13 19 19 18 11 22 21 20 18 25 24 25 25 24 24 23 22 25 27 29 30 30 29 31 32 34 32 25 22 25 21 22 22 22 23 21 22 22 23
23 20 21 16 16 14 18 19 16 19 21 21 21 24 28 26 20 19 18 18 19 19 24 28 26 27 27 26 27 27 27 26 17 23 20 19 22 21 21 21 21 22 22
22 20 19 18 15 14 14 15 17 19 21 21 19 18 16 18 17 16 17 19 21 22 19 18 17 16 16 18 22 25 26 26 25 23 22 20 22 18 19 18 20 20 20
22 21 20 17 14 15 18 15 16 18 22 23 18 18 17 18 17 18 21 24 25 25 25 22 19 15 17 20 22 24 25 23 22 21 20 17 17 17 18 18 18 18 16
23 22 21 18 15 17 16 13 14 20 24 26 23 20 18 18 18 18 20 23 26 25 22 19 17 18 18 18 19 20 20 20 18 14 17 12 12 13 11 15 10 16 20
Wind_Direction
230 228 225 223 223 223 222 221 220 218 215 213 213 212 213 211 209 197 186 178 184 186 144 139 123 112 97 88 76 70 74 78 77 80 80 76 71 61 51 47 40 32 19
235 232 228 226 225 225 224 223 224 222 218 214 212 210 211 211 207 199 194 181 175 179 152 141 129 119 103 94 86 78 76 80 84 83 80 74 69 65 59 57 55 47 42
238 237 230 227 226 226 225 223 221 220 217 212 211 210 210 210 206 201 196 182 189 197 185 181 155 139 121 109 106 108 106 97 88 90 90 84 76 69 65 61 59 56 54
239 238 232 230 226 227 228 226 221 218 216 213 210 209 210 210 206 202 196 194 187 194 197 196 190 179 158 142 132 135 132 121 110 98 89 81 74 69 66 62 59 57 54
239 239 236 236 230 227 229 230 224 219 217 211 210 210 209 208 206 203 201 201 204 203 200 204 202 191 180 163 148 139 137 134 129 118 108 94 82 72 63 54 47 38 31
241 239 242 238 229 230 228 227 228 219 216 213 208 205 205 205 206 205 204 203 206 206 206 202 194 191 187 173 160 148 144 144 142 134 122 111 98 82 67 57 49 38 23
243 240 240 240 235 233 225 226 225 228 212 207 204 199 201 201 203 204 203 206 206 204 200 197 194 186 186 182 171 165 160 157 156 148 141 122 96 73 56 40 28 21 12
248 242 240 240 239 232 225 223 224 223 223 212 198 197 182 202 205 205 205 204 206 205 202 197 197 191 186 184 183 181 178 177 169 161 157 125 85 65 44 24 15 9 5
258 251 243 241 239 236 228 222 222 222 218 210 206 195 176 198 194 206 207 204 206 204 203 201 197 197 193 195 194 192 189 191 186 184 176 139 108 75 40 11 2 5 0
260 257 253 243 243 238 231 224 225 222 220 215 204 207 207 203 173 184 205 206 207 206 205 201 200 199 198 196 194 190 187 193 198 204 203 189 121 55 8 344 350 359 352
266 251 253 250 247 240 234 234 227 223 221 223 215 207 205 198 194 181 186 196 202 206 205 204 203 201 199 195 194 189 187 189 199 209 218 225 230 258 296 316 326 336 333
255 247 249 251 254 249 238 236 233 229 224 220 221 214 206 202 192 197 185 191 192 199 201 202 201 202 201 196 192 195 193 194 198 207 222 226 236 252 262 277 292 304 312
276 252 243 244 249 245 243 236 228 222 211 218 221 214 210 210 206 201 202 185 182 191 196 205 203 203 202 198 196 196 199 202 211 212 223 227 235 249 263 273 283 292 300
291 275 261 258 249 250 246 240 233 231 222 219 216 229 214 215 209 211 208 197 169 183 196 202 202 203 202 201 199 209 210 204 217 224 220 225 229 237 252 261 267 273 282
308 301 280 266 257 257 249 246 241 226 217 220 217 218 219 217 209 210 214 215 209 176 192 201 201 204 203 203 206 212 205 212 220 234 229 240 246 255 255 261 270 280 287
329 312 290 275 275 264 254 256 251 236 227 218 212 208 216 222 219 212 210 212 213 218 187 200 202 206 207 206 211 211 212 220 223 227 235 254 262 275 280 279 279 286 293
349 353 308 305 299 285 267 251 237 231 215 212 206 208 212 218 211 209 212 205 196 191 197 201 199 208 213 214 213 215 214 222 226 230 243 251 260 280 284 287 289 292 295
318 321 336 314 298 298 277 240 219 214 213 210 213 209 207 211 211 205 207 209 215 200 208 209 217 210 207 212 217 215 215 219 225 231 240 249 260 276 283 286 289 295 296
305 316 299 308 344 306 288 238 239 235 221 209 211 208 195 204 206 203 206 219 213 211 219 222 201 202 205 207 211 211 216 220 225 233 240 248 261 275 282 285 293 297 299
299 295 299 300 275 312 284 241 236 213 209 208 203 206 205 199 208 220 212 201 210 220 208 201 207 205 205 202 205 209 211 217 226 238 241 253 267 275 281 285 290 290 290
301 299 293 288 277 252 272 266 218 195 202 202 199 205 215 223 213 208 211 206 206 209 206 204 202 198 196 196 202 206 214 218 232 235 244 261 271 275 279 287 287 286 289
311 311 293 275 276 276 242 244 235 209 202 209 208 206 207 205 208 218 219 219 222 214 208 207 199 195 191 192 196 209 213 218 218 231 245 258 266 272 278 279 283 286 290
293 295 296 285 269 270 271 245 225 225 217 210 208 196 201 208 203 193 190 196 205 208 213 200 191 190 196 208 213 210 210 212 209 239 243 249 263 269 273 279 282 285 289
291 297 298 292 267 253 274 265 236 219 215 210 215 213 200 198 197 194 191 182 177 175 177 194 205 209 213 212 213 214 210 218 233 237 240 253 260 263 269 275 280 286 289
287 296 298 288 264 257 249 226 233 212 209 203 203 202 199 193 191 186 186 179 173 174 181 192 205 219 207 207 213 212 212 210 222 238 241 242 256 265 274 282 283 281 280
282 286 290 285 259 257 244 238 228 214 204 199 199 195 190 192 184 182 183 179 174 180 191 203 199 196 196 196 200 209 220 219 217 222 241 238 252 275 292 280 265 285 294
Height
1527 1529 1530 1533 1535 1537 1538 1540 1542 1543 1546 1547 1548 1550 1551 1552 1553 1554 1555 1556 1556 1557 1556 1556 1556 1556 1556 1557 1557 1557 1557 1558 1558 1557 1557 1557 1557 1557 1557 1557 1557 1557 1556
1524 1526 1527 1528 1530 1532 1535 1536 1538 1540 1542 1544 1545 1548 1549 1550 1551 1551 1553 1555 1556 1556 1556 1556 1555 1555 1556 1556 1557 1557 1557 1558 1558 1558 1557 1557 1557 1558 1558 1557 1557 1557 1556
1518 1522 1524 1524 1527 1530 1531 1532 1533 1535 1538 1540 1542 1544 1546 1548 1549 1550 1551 1552 1553 1555 1556 1556 1555 1555 1555 1556 1556 1556 1557 1557 1557 1558 1558 1558 1558 1558 1558 1558 1558 1557 1556
1512 1515 1518 1520 1519 1525 1529 1528 1527 1529 1533 1535 1538 1540 1542 1545 1547 1548 1548 1549 1550 1552 1554 1555 1555 1555 1555 1555 1555 1555 1556 1557 1557 1558 1557 1558 1558 1558 1559 1558 1558 1558 1557
1502 1505 1508 1513 1516 1516 1521 1525 1524 1520 1526 1529 1532 1536 1538 1540 1543 1545 1547 1546 1548 1549 1551 1552 1553 1554 1554 1554 1554 1555 1555 1555 1556 1557 1557 1557 1558 1559 1559 1559 1558 1558 1557
1493 1497 1501 1506 1505 1509 1514 1518 1525 1520 1519 1523 1529 1532 1535 1535 1538 1541 1543 1544 1545 1545 1547 1549 1550 1551 1553 1553 1553 1553 1554 1554 1555 1556 1557 1557 1558 1558 1558 1559 1558 1558 1557
1483 1485 1487 1493 1498 1501 1499 1510 1517 1526 1518 1513 1517 1527 1531 1532 1533 1534 1537 1540 1541 1542 1543 1545 1547 1547 1549 1550 1551 1552 1552 1553 1554 1555 1555 1556 1557 1558 1558 1558 1558 1557 1557
1475 1477 1476 1478 1481 1487 1492 1496 1493 1504 1515 1502 1494 1517 1524 1530 1528 1529 1532 1533 1536 1538 1539 1540 1543 1544 1545 1547 1548 1549 1550 1551 1553 1554 1554 1555 1556 1557 1557 1557 1557 1556 1556
1460 1463 1467 1467 1468 1471 1473 1478 1482 1480 1489 1493 1478 1491 1508 1509 1517 1523 1526 1527 1529 1532 1535 1536 1538 1541 1541 1543 1545 1546 1547 1549 1550 1552 1552 1553 1554 1555 1555 1555 1555 1555 1554
1448 1447 1452 1458 1457 1457 1460 1462 1466 1469 1474 1477 1470 1481 1480 1482 1493 1510 1517 1520 1524 1526 1529 1531 1534 1536 1538 1539 1541 1542 1544 1545 1548 1549 1550 1552 1553 1553 1553 1554 1554 1553 1553
1433 1438 1438 1442 1445 1448 1446 1449 1452 1453 1458 1465 1460 1469 1475 1477 1474 1489 1500 1505 1515 1519 1522 1526 1529 1532 1534 1535 1537 1539 1540 1542 1545 1547 1548 1549 1550 1551 1552 1552 1551 1551 1551
1432 1420 1422 1427 1434 1428 1430 1433 1435 1441 1443 1441 1450 1451 1456 1463 1462 1477 1485 1497 1502 1511 1514 1520 1523 1527 1530 1531 1533 1535 1537 1539 1541 1543 1545 1546 1548 1549 1549 1549 1549 1549 1549
1423 1426 1421 1428 1423 1421 1417 1417 1419 1428 1429 1448 1441 1441 1446 1455 1454 1471 1478 1486 1497 1504 1508 1515 1516 1521 1524 1528 1530 1532 1534 1536 1537 1538 1541 1543 1544 1546 1547 1547 1548 1547 1546
1417 1415 1411 1410 1419 1420 1417 1419 1416 1411 1412 1433 1443 1464 1448 1452 1448 1463 1471 1476 1492 1496 1499 1503 1508 1512 1517 1522 1525 1528 1531 1532 1534 1535 1538 1540 1541 1542 1543 1544 1544 1544 1544
1415 1411 1407 1404 1399 1411 1407 1403 1411 1407 1411 1420 1421 1440 1451 1448 1451 1460 1466 1469 1475 1487 1494 1496 1501 1506 1511 1515 1519 1523 1526 1528 1529 1531 1533 1536 1538 1538 1539 1540 1541 1541 1541
1415 1410 1406 1401 1402 1402 1397 1397 1403 1401 1405 1407 1407 1421 1440 1448 1450 1457 1457 1464 1468 1476 1489 1489 1494 1498 1505 1509 1513 1518 1522 1524 1525 1527 1530 1532 1533 1535 1536 1536 1537 1538 1538
1413 1408 1405 1400 1398 1397 1395 1388 1393 1395 1398 1402 1407 1411 1422 1438 1444 1447 1453 1456 1463 1468 1481 1488 1490 1495 1501 1505 1507 1513 1518 1520 1520 1522 1526 1527 1528 1530 1532 1532 1533 1532 1532
1409 1407 1404 1398 1397 1393 1390 1390 1388 1388 1393 1397 1406 1410 1416 1426 1433 1443 1446 1453 1459 1465 1473 1483 1485 1488 1494 1499 1503 1508 1513 1515 1516 1519 1521 1523 1525 1526 1528 1528 1528 1528 1527
1405 1403 1400 1397 1393 1388 1389 1388 1388 1385 1392 1393 1402 1405 1411 1419 1429 1434 1440 1447 1451 1457 1464 1471 1475 1481 1487 1492 1496 1503 1508 1510 1512 1515 1516 1518 1520 1521 1523 1523 1523 1523 1522
1403 1398 1395 1394 1390 1388 1389 1388 1388 1384 1386 1397 1400 1402 1409 1416 1423 1426 1434 1442 1447 1452 1455 1462 1468 1472 1477 1483 1489 1496 1503 1505 1508 1511 1511 1513 1515 1516 1517 1517 1517 1517 1516
1399 1395 1392 1390 1390 1387 1386 1387 1385 1384 1390 1399 1401 1403 1408 1413 1418 1425 1431 1436 1441 1444 1450 1455 1458 1464 1470 1475 1481 1490 1497 1501 1503 1507 1508 1509 1510 1511 1512 1512 1511 1510 1510
1396 1392 1389 1388 1385 1384 1384 1383 1384 1383 1390 1396 1399 1403 1407 1412 1416 1421 1426 1431 1434 1440 1443 1448 1453 1460 1466 1470 1476 1482 1488 1494 1499 1502 1503 1505 1506 1506 1506 1505 1506 1506 1505
1393 1389 1385 1383 1382 1382 1379 1380 1381 1382 1390 1394 1397 1402 1407 1411 1415 1418 1423 1425 1430 1434 1440 1445 1452 1459 1463 1465 1471 1475 1481 1486 1492 1495 1498 1501 1500 1500 1499 1500 1500 1500 1498
1388 1386 1381 1379 1377 1378 1377 1377 1377 1382 1386 1392 1397 1402 1404 1408 1412 1414 1418 1423 1428 1435 1443 1448 1455 1457 1460 1462 1467 1473 1477 1482 1485 1489 1492 1494 1494 1495 1495 1494 1492 1493 1492
1382 1380 1376 1375 1374 1373 1374 1374 1377 1380 1383 1389 1394 1399 1402 1406 1409 1413 1418 1421 1427 1435 1443 1449 1453 1455 1457 1460 1465 1470 1474 1477 1481 1483 1487 1487 1486 1487 1486 1487 1488 1488 1486
1376 1374 1372 1371 1369 1369 1370 1371 1373 1377 1380 1383 1391 1396 1400 1404 1406 1411 1418 1421 1427 1434 1441 1445 1448 1455 1457 1459 1462 1465 1470 1474 1478 1480 1480 1482 1482 1480 1482 1481 1480 1480 1478